Stations météo

réclame
Mon MeteoGroup
Baltasound, Grande-Bretagne (3002): Température de l'air & dewpoint: 11.01.2019 23:00:00 - 17.01.2019 23:00:00 (GMT)Baltasound, Grande-Bretagne (3002): Température de l'air -20cm: 11.01.2019 23:00:00 - 17.01.2019 23:00:00 (GMT)Baltasound, Grande-Bretagne (3002): Vitesse du vent & gusts: 11.01.2019 23:00:00 - 17.01.2019 23:00:00 (GMT)Baltasound, Grande-Bretagne (3002): Direction du vent: 11.01.2019 23:00:00 - 17.01.2019 23:00:00 (GMT)Baltasound, Grande-Bretagne (3002): reduced air pressure: 11.01.2019 23:00:00 - 17.01.2019 23:00:00 (GMT)Baltasound, Grande-Bretagne (3002): visibility: 11.01.2019 23:00:00 - 17.01.2019 23:00:00 (GMT)Baltasound, Grande-Bretagne (3002): Quantités de précipitations: 11.01.2019 23:00:00 - 17.01.2019 23:00:00 (GMT)
Date & Time tt [°C] td [°C] tt -20cm [°C] ff [km/h] ff [knt] fx [km/h] fx [knt] dd ppp [hPa] vv [km] rr [mm]
17.01.2019 23:00:00 2,3 -3,7 - 21 11 - - NNW 1012,6 40 0,0
17.01.2019 22:00:00 1,1 -2,1 - 13 7 - - NNW 1012,5 30 0,0
17.01.2019 21:00:00 1,4 -3,7 - 18 10 - - NW 1012,5 35 0,0
17.01.2019 20:00:00 1,1 -3,1 - 18 10 - - NNW 1012,4 30 0,0
17.01.2019 19:00:00 -1,0 -3,0 - 9 5 - - WNW 1012,4 30 0,0
17.01.2019 18:00:00 0,7 -1,4 - 15 8 - - N 1012,2 21 0,0
17.01.2019 17:00:00 1,9 -2,5 - 13 7 - - N 1011,9 30 0,0
17.01.2019 16:00:00 2,7 -3,5 - 18 10 - - NNW 1011,7 23 0,0
17.01.2019 15:00:00 2,8 -3,8 - 22 12 - - N 1011,0 30 0,0
17.01.2019 14:00:00 2,9 -4,4 - 26 14 - - N 1010,5 30 0,0
17.01.2019 13:00:00 3,4 -2,8 - 28 15 - - N 1010,3 20 0,0
17.01.2019 12:00:00 3,6 -3,5 - 34 18 48 26 N 1009,8 18 0,0
17.01.2019 11:00:00 3,4 -3,2 - 34 18 50 27 N 1009,2 20 0,0
17.01.2019 10:00:00 3,6 -4,1 - 39 21 59 32 N 1008,5 26 0,0
17.01.2019 09:00:00 3,6 -3,2 4,4 44 24 70 38 N 1007,3 18 0,0
17.01.2019 08:00:00 4,0 -3,1 - 48 26 78 42 N 1005,7 17 0,0
17.01.2019 07:00:00 3,8 -2,6 - 52 28 80 43 N 1004,7 13 0,0
17.01.2019 06:00:00 3,0 -0,9 - 41 22 72 39 N 1003,4 14 0,2
17.01.2019 05:00:00 3,7 -2,9 - 48 26 68 37 N 1002,1 28 0,0
17.01.2019 04:00:00 3,0 -3,4 - 50 27 70 38 N 1001,2 28 0,0
17.01.2019 03:00:00 2,5 -1,9 - 41 22 67 36 N 1000,0 11 0,2
17.01.2019 02:00:00 2,1 -3,3 - 48 26 83 45 N 998,3 30 0,0
17.01.2019 01:00:00 2,2 -3,5 - 52 28 91 49 N 996,6 30 0,0
17.01.2019 00:00:00 2,1 -1,8 - 54 29 94 51 NNE 994,1 30 0,6
16.01.2019 23:00:00 1,8 -2,1 - 48 26 68 37 N 992,4 19 0,4
16.01.2019 22:00:00 1,4 -2,6 - 46 25 65 35 NNW 992,6 45 0,0
16.01.2019 21:00:00 0,4 -2,3 - 48 26 67 36 NW 993,1 8 0,0
16.01.2019 20:00:00 1,3 -2,9 - 31 17 59 32 NNW 992,9 19 0,0
16.01.2019 19:00:00 0,7 -3,0 - 35 19 54 29 N 993,3 30 0,0
16.01.2019 18:00:00 1,1 -4,0 - 34 18 50 27 NNW 992,6 50 0,0
16.01.2019 17:00:00 1,0 -2,1 - 29 16 - - NNW 992,4 35 0,0
16.01.2019 16:00:00 0,4 -1,2 - 37 20 50 27 NW 992,6 1,5 0,0
16.01.2019 15:00:00 1,8 -3,8 - 22 12 - - NNW 991,9 50 0,0
16.01.2019 14:00:00 2,4 -2,5 - 24 13 - - NNW 991,4 45 0,0
16.01.2019 13:00:00 3,2 -0,7 - 28 15 - - N 991,2 45 0,0
16.01.2019 12:00:00 3,6 0,6 - 29 16 48 26 N 990,7 45 0,0
16.01.2019 11:00:00 3,1 1,3 - 31 17 46 25 N 989,9 40 0,0
16.01.2019 10:00:00 3,7 1,2 - 28 15 - - N 988,9 45 0,2
16.01.2019 09:00:00 3,3 2,2 4,7 16 9 - - N 988,5 40 1,0
16.01.2019 08:00:00 3,0 1,4 - 22 12 48 26 N 987,8 4,5 0,2
16.01.2019 07:00:00 3,6 2,4 - 34 18 48 26 NNE 986,5 35 0,4
16.01.2019 06:00:00 3,0 2,3 - 34 18 54 29 NNE 986,3 11 1,4
16.01.2019 05:00:00 3,1 2,4 - 39 21 54 29 NNE 985,3 4,3 1,4
16.01.2019 04:00:00 3,2 2,1 - 35 19 52 28 NE 985,1 9 1,2
16.01.2019 03:00:00 3,2 2,5 - 34 18 - - ENE 985,4 7 1,0
16.01.2019 02:00:00 2,7 2,0 - 34 18 - - ENE 986,5 6 2,0
16.01.2019 01:00:00 2,5 1,8 - 28 15 - - E 988,0 7 3,2
16.01.2019 00:00:00 2,7 1,8 - 21 11 - - E 989,9 7 2,2
15.01.2019 23:00:00 2,9 1,8 - 16 9 - - ESE 991,1 11 1,2
15.01.2019 22:00:00 2,8 1,8 - 15 8 - - S 992,9 11 0,2
15.01.2019 21:00:00 3,3 2,0 - 21 11 - - SSW 994,0 12 0,2
15.01.2019 20:00:00 4,2 1,9 - 24 13 - - SW 994,7 14 0,0
15.01.2019 19:00:00 5,7 1,9 - 15 8 - - W 995,2 15 0,0
15.01.2019 18:00:00 5,9 1,5 - 21 11 - - W 995,7 16 0,0
15.01.2019 17:00:00 6,1 1,8 - 24 13 - - W 996,3 17 0,0
15.01.2019 16:00:00 6,2 1,2 - 28 15 - - W 996,7 17 0,0
15.01.2019 15:00:00 6,0 1,0 - 34 18 46 25 W 997,0 18 0,0
15.01.2019 14:00:00 6,3 0,2 - 37 20 57 31 W 997,3 20 0,0
15.01.2019 13:00:00 6,6 1,7 - 34 18 55 30 W 997,2 16 0,0
15.01.2019 12:00:00 6,5 0,3 - 42 23 59 32 WNW 997,6 19 0,0
15.01.2019 11:00:00 6,0 1,7 - 44 24 61 33 W 997,5 15 0,0
15.01.2019 10:00:00 5,8 2,5 - 41 22 65 35 W 997,1 14 0,2
15.01.2019 09:00:00 6,0 1,4 4,7 46 25 70 38 WNW 997,1 15 0,0
15.01.2019 08:00:00 6,4 1,2 - 46 25 74 40 W 996,5 16 0,0
15.01.2019 07:00:00 5,9 2,4 - 50 27 74 40 W 995,8 14 0,0
15.01.2019 06:00:00 6,6 2,8 - 54 29 74 40 W 995,5 13 0,0
15.01.2019 05:00:00 7,0 3,0 - 52 28 72 39 WNW 995,4 11 0,0
15.01.2019 04:00:00 7,2 3,9 - 46 25 74 40 WNW 994,9 9 0,0
15.01.2019 03:00:00 7,7 5,0 - 52 28 70 38 W 994,9 8 0,6
15.01.2019 02:00:00 4,8 4,5 - 39 21 61 33 S 995,1 3,2 0,2
15.01.2019 01:00:00 3,1 2,5 - 39 21 55 30 S 997,7 9 0,0
15.01.2019 00:00:00 1,8 1,3 - 35 19 46 25 S 1000,4 8 2,4
14.01.2019 23:00:00 1,1 0,3 - 31 17 - - S 1002,8 9 0,0
14.01.2019 22:00:00 1,1 -0,6 - 18 10 - - SSE 1004,7 11 0,0
14.01.2019 21:00:00 -0,5 -1,7 - 2 1 - - SSE 1006,4 35 0,0
14.01.2019 20:00:00 -0,7 -2,0 - 2 1 - - W 1007,7 35 0,0
14.01.2019 19:00:00 -0,9 -2,6 - 4 2 - - W 1008,3 35 0,0
14.01.2019 18:00:00 -0,5 -2,6 - 4 2 - - NW 1008,8 35 0,0
14.01.2019 17:00:00 0,2 -1,1 - 11 6 - - N 1008,8 50 0,0
14.01.2019 16:00:00 0,0 -0,6 - 11 6 - - N 1008,9 6 0,0
14.01.2019 15:00:00 -0,2 -1,0 - 2 1 - - NNE 1009,0 9 0,0
14.01.2019 14:00:00 -0,1 -1,0 - 4 2 - - E 1009,5 1,1 0,0
14.01.2019 13:00:00 0,1 -1,4 - 5 3 - - NNW 1010,1 8 0,0
14.01.2019 12:00:00 0,5 -2,0 - 13 7 - - NNW 1010,6 22 0,0
14.01.2019 11:00:00 0,1 -2,0 - 16 9 - - NW 1011,3 6 0,0
14.01.2019 10:00:00 0,6 -3,8 - 26 14 - - NW 1011,7 13 0,0
14.01.2019 09:00:00 0,7 -4,6 5,4 31 17 50 27 NW 1011,4 22 0,0
14.01.2019 08:00:00 0,2 -5,5 - 35 19 54 29 NNW 1011,3 29 0,0
14.01.2019 07:00:00 0,4 -5,0 - 34 18 55 30 NNW 1010,6 21 0,0
14.01.2019 06:00:00 0,3 -6,3 - 46 25 61 33 NW 1010,4 29 0,0
14.01.2019 05:00:00 -0,2 -5,9 - 48 26 68 37 NW 1010,1 35 0,0
14.01.2019 04:00:00 -0,3 -4,8 - 46 25 78 42 NNW 1009,8 15 0,0
14.01.2019 03:00:00 -0,2 -6,6 - 55 30 74 40 NW 1009,2 29 0,0
14.01.2019 02:00:00 -0,6 -5,1 - 52 28 81 44 NW 1008,5 22 0,0
14.01.2019 01:00:00 0,0 -6,9 - 50 27 78 42 NNW 1007,9 27 0,0
14.01.2019 00:00:00 -0,1 -5,3 - 52 28 81 44 NNW 1007,2 21 0,0
13.01.2019 23:00:00 -0,9 -4,0 - 52 28 81 44 NNW 1006,9 9 0,0
13.01.2019 22:00:00 -2,0 -3,0 - 50 27 87 47 NNW 1006,7 1,5 0,0
13.01.2019 21:00:00 -0,3 -4,1 - 55 30 80 43 NW 1005,8 3,6 0,0
13.01.2019 20:00:00 0,8 -6,1 - 57 31 78 42 NNW 1004,7 28 0,0
13.01.2019 19:00:00 1,0 -4,6 - 42 23 72 39 NNW 1004,2 13 0,0
13.01.2019 18:00:00 1,1 -6,9 - 50 27 72 39 NNW 1003,3 45 0,0
13.01.2019 17:00:00 0,8 -3,9 - 42 23 59 32 NNW 1002,5 9 0,0
13.01.2019 16:00:00 1,4 -4,0 - 34 18 50 27 NNW 1001,0 24 0,0
13.01.2019 15:00:00 1,9 -4,2 - 35 19 55 30 N 999,9 25 0,0
13.01.2019 14:00:00 2,2 -3,4 - 37 20 50 27 N 998,8 22 0,0
13.01.2019 13:00:00 2,6 -1,0 - 37 20 54 29 N 997,8 24 0,0
13.01.2019 12:00:00 3,4 -0,9 - 35 19 50 27 NNE 996,5 23 0,0
13.01.2019 11:00:00 3,8 -0,1 - 39 21 52 28 NNE 995,3 19 0,2
13.01.2019 10:00:00 4,0 1,4 - 35 19 55 30 NNE 993,7 20 0,0
13.01.2019 09:00:00 4,5 2,4 6,0 35 19 54 29 NNE 991,9 26 0,2
13.01.2019 08:00:00 5,1 3,6 - 31 17 48 26 N 990,3 23 0,0
13.01.2019 07:00:00 5,8 4,8 - 29 16 - - NNW 988,9 30 1,4
13.01.2019 06:00:00 6,7 5,6 - 24 13 68 37 NW 988,5 14 0,4
13.01.2019 05:00:00 7,9 6,5 - 48 26 67 36 WNW 988,5 18 0,2
13.01.2019 04:00:00 8,2 6,8 - 44 24 63 34 W 989,2 15 0,0
13.01.2019 03:00:00 8,3 7,4 - 46 25 70 38 W 990,1 12 0,4
13.01.2019 02:00:00 8,5 7,5 - 44 24 65 35 W 990,9 12 0,0
13.01.2019 01:00:00 8,5 7,6 - 42 23 61 33 W 991,7 19 0,2
13.01.2019 00:00:00 7,6 7,0 - 26 14 81 44 W 992,6 20 0,2
12.01.2019 23:00:00 7,3 6,7 - 26 14 - - W 993,6 6 0,6
12.01.2019 22:00:00 7,0 5,3 - 31 17 50 27 W 995,1 15 0,2
12.01.2019 21:00:00 7,4 5,3 - 35 19 50 27 W 996,8 14 0,0
12.01.2019 20:00:00 6,7 5,4 - 34 18 48 26 W 997,6 8 0,0
12.01.2019 19:00:00 6,8 4,6 - 34 18 - - W 998,3 23 0,0
12.01.2019 18:00:00 6,9 4,1 - 28 15 46 25 W 999,5 18 0,0
12.01.2019 17:00:00 6,9 4,6 - 28 15 - - W 1000,0 16 0,0
12.01.2019 16:00:00 5,8 4,0 - 21 11 - - NW 1000,2 16 0,0
12.01.2019 15:00:00 6,5 4,6 - 24 13 - - WNW 1000,4 22 0,0
12.01.2019 14:00:00 6,5 4,9 - 37 20 50 27 WNW 1000,3 6 0,2
12.01.2019 13:00:00 7,1 5,0 - 31 17 50 27 WNW 999,9 21 0,0
12.01.2019 12:00:00 7,8 5,9 - 39 21 59 32 WNW 999,8 12 0,0
12.01.2019 11:00:00 7,0 5,6 - 42 23 65 35 WNW 999,6 16 0,2
12.01.2019 10:00:00 7,1 5,1 - 48 26 67 36 WNW 999,8 5 0,0
12.01.2019 09:00:00 7,7 5,4 5,9 48 26 65 35 WNW 999,8 12 0,2
12.01.2019 08:00:00 7,7 5,2 - 42 23 67 36 WNW 999,9 15 0,0
12.01.2019 07:00:00 7,5 5,9 - 46 25 70 38 WNW 999,6 14 0,6
12.01.2019 06:00:00 7,2 5,5 - 46 25 63 34 WNW 999,6 14 0,2
12.01.2019 05:00:00 7,8 5,3 - 46 25 65 35 W 1000,1 15 0,0
12.01.2019 04:00:00 7,5 5,6 - 42 23 57 31 W 1000,6 15 0,0
12.01.2019 03:00:00 7,5 6,7 - 37 20 57 31 W 1001,4 8 2,2
12.01.2019 02:00:00 7,4 6,8 - 24 13 52 28 SW 1002,1 2,7 2,6
12.01.2019 01:00:00 7,0 6,5 - 35 19 52 28 S 1003,8 8 1,4
12.01.2019 00:00:00 6,7 6,2 - 26 14 - - S 1006,3 3,9 0,2
11.01.2019 23:00:00 6,6 6,0 - 24 13 - - SSW 1008,5 30 0,0

tt = Température de l'air
td = dewpoint
tt -20cm = Température de l'air -20cm
ff = Vitesse du vent
fx = gusts
dd = Direction du vent
ppp = reduced air pressure
vv = visibility
rr = Quantités de précipitations

stations d'obs. à proximité